Location: Frankfurt am Main
(50.1109°N, 8.6821°E)
Time: 08:51:17
(UTC+01:00)

ISS - Visible Passes

Search period start: 26 October 2020 00:00
Search period end: 05 November 2020 00:00
Orbit: 417 x 420 km, 51.6° (Epoch: 26 October)

Date Brightness Start Highest point End Pass type
(mag) Time Alt. Az. Time Alt. Az. Time Alt. Az.
26 Oct -1.9 05:07:09 20° S 05:08:28 26° SE 05:11:19 10° E visible
27 Oct -1.0 04:21:42 16° ESE 04:21:42 16° ESE 04:23:14 10° E visible
27 Oct -3.6 05:54:40 16° WSW 05:57:14 70° SSE 06:00:36 10° ENE visible
28 Oct -3.3 05:09:06 47° S 05:09:32 51° SSE 05:12:49 10° ENE visible
29 Oct -1.3 04:23:27 22° E 04:23:27 22° E 04:24:58 10° E visible
29 Oct -3.8 05:56:24 21° W 05:58:30 77° N 06:01:53 10° ENE visible
30 Oct -3.9 05:10:41 88° SSW 05:10:43 89° SSE 05:14:05 10° ENE visible
31 Oct -1.3 04:24:56 23° E 04:24:56 23° E 04:26:18 10° ENE visible
31 Oct -3.6 05:57:52 23° W 05:59:49 65° N 06:03:11 10° E visible
01 Nov -3.7 05:12:05 68° N 05:12:05 68° N 05:15:22 10° ENE visible
02 Nov -1.2 04:26:16 21° ENE 04:26:16 21° ENE 04:27:34 10° ENE visible
02 Nov -3.7 05:59:13 23° WNW 06:01:08 71° N 06:04:30 10° E visible
03 Nov -3.6 05:13:23 65° NNE 05:13:23 65° NNE 05:16:40 10° E visible
04 Nov -1.1 04:27:35 21° ENE 04:27:35 21° ENE 04:28:49 10° E visible
04 Nov -3.8 06:00:31 25° WNW 06:02:22 82° SSW 06:05:45 10° ESE visible
